Theta_e
287 287 287 287 286 285 285 285 284 283 282 280 279 279 278 278 278 278 279 279 279 279 281 283 284 286 288 290 292 293 295 295 296 296 296 295 295 296 296 296 297 297
286 286 287 286 286 285 284 284 283 282 281 279 279 279 278 277 277 277 278 278 278 279 281 282 283 284 287 290 291 293 294 295 295 295 295 296 295 295 295 296 298 298
286 286 286 286 286 285 284 283 283 281 280 279 278 278 277 277 276 276 277 277 278 278 280 281 281 284 286 289 291 292 294 295 295 295 294 295 295 295 295 296 297 297
286 285 285 285 285 285 284 282 282 281 279 278 278 277 276 276 276 276 276 277 277 278 279 279 280 283 285 287 290 292 294 294 295 294 294 295 295 295 295 295 295 296
285 285 284 284 285 284 283 281 281 280 279 278 278 277 276 276 275 275 276 276 277 278 278 279 280 281 284 286 288 290 293 294 294 294 294 294 295 295 295 294 295 295
284 284 284 284 284 284 282 280 280 279 278 277 277 276 275 275 275 275 275 275 276 276 277 279 280 280 282 285 287 289 291 292 294 294 294 294 294 294 295 294 295 295
284 284 284 284 284 283 281 280 279 278 278 277 276 276 275 275 274 274 274 275 275 276 277 278 278 278 281 284 286 287 289 291 293 294 293 294 294 294 295 295 295 296
284 283 283 283 283 283 281 280 279 278 277 276 276 275 274 274 274 274 274 274 275 275 276 276 276 277 279 281 283 286 288 289 291 293 293 294 294 295 295 295 295 296
283 283 283 283 283 282 281 280 279 278 277 275 275 274 274 273 273 274 274 274 274 274 274 274 274 275 277 278 281 284 287 289 290 292 293 294 294 295 295 295 295 296
282 282 282 282 282 282 281 279 278 277 276 274 274 273 273 272 272 273 273 273 273 273 273 273 273 274 275 277 279 282 286 288 289 291 292 293 294 295 296 296 296 297
282 282 282 282 282 281 280 279 278 277 275 274 273 272 272 272 271 272 272 272 272 272 273 272 272 273 276 278 279 280 284 288 289 290 291 292 294 295 296 296 297 298
282 281 281 281 281 281 280 278 277 276 274 273 272 271 271 271 271 271 271 271 271 271 272 271 272 274 277 278 278 280 284 287 289 289 291 292 293 295 295 296 297 298
282 281 281 281 282 281 280 277 276 276 275 274 272 271 271 271 270 270 270 270 270 270 271 271 271 274 277 278 279 281 283 287 288 289 290 292 293 294 296 296 297 298
281 281 281 282 282 281 279 278 278 277 276 276 274 272 272 272 271 270 270 270 270 270 271 271 271 274 276 277 278 280 282 285 288 288 290 292 293 294 296 296 297 298
281 281 282 283 283 282 281 280 280 279 277 276 276 274 273 273 273 272 271 272 272 272 272 272 272 274 276 277 278 279 281 284 286 288 289 291 292 294 295 295 296 297
280 281 282 283 283 283 282 281 280 280 279 277 276 275 274 274 273 273 273 273 275 275 273 272 272 273 275 276 277 278 279 282 285 287 288 289 290 292 294 294 295 296
281 282 282 283 283 283 283 282 281 280 279 277 276 275 274 273 273 274 274 275 276 276 275 273 273 273 274 274 276 277 278 280 283 285 287 288 289 291 292 293 294 295
281 282 283 284 283 283 283 282 281 280 278 276 275 275 274 274 274 274 275 276 277 277 276 275 275 276 275 275 276 277 278 280 282 284 285 286 288 289 291 292 293 294
281 282 284 284 284 283 283 282 281 280 278 275 274 274 273 273 274 275 276 277 277 277 277 276 277 278 277 277 277 278 279 280 281 283 284 286 287 288 289 291 292 293
281 282 283 284 283 283 282 282 281 279 277 275 273 272 272 272 274 275 276 277 277 277 277 277 278 279 279 277 278 279 280 280 281 282 284 285 286 287 288 289 290 292
281 282 283 284 283 283 282 281 280 278 276 274 272 272 272 272 273 274 276 277 277 277 276 276 278 279 279 278 278 279 280 281 281 282 283 284 285 286 287 288 290 291
281 282 283 284 283 282 281 279 278 276 275 272 271 271 271 271 273 274 275 277 278 276 275 276 278 280 280 279 279 279 280 281 282 283 283 284 285 286 287 288 289 291
281 282 282 283 282 281 280 278 276 274 273 271 269 270 270 270 272 274 275 276 277 277 276 276 279 280 281 281 281 280 280 281 282 283 284 285 286 286 287 287 288 290
280 281 282 282 281 280 278 277 274 272 271 269 268 268 269 269 271 273 275 276 276 277 277 278 279 281 281 281 282 282 281 282 283 284 285 286 286 287 287 287 288 289
280 281 281 281 280 279 277 275 272 270 269 268 267 267 268 269 270 272 274 276 276 277 279 279 280 281 282 282 282 282 282 282 283 284 285 286 287 288 288 288 289 289
279 280 280 279 278 278 275 273 271 270 268 267 267 267 268 269 270 272 273 275 276 277 279 280 281 282 283 283 282 282 282 283 284 285 286 286 287 288 289 290 290 290
Wind_Speed
43 44 45 46 46 47 49 51 51 50 49 48 47 47 49 47 41 34 33 32 32 33 31 32 36 36 32 30 31 33 31 33 35 33 30 28 29 31 32 33 34 37
44 44 46 47 47 48 49 50 50 48 47 46 45 46 46 47 43 35 32 33 34 33 30 31 33 32 31 29 29 32 31 31 32 30 29 28 29 31 31 32 31 32
45 45 46 47 48 49 49 49 50 47 47 46 44 45 45 45 43 37 32 33 33 32 31 33 31 29 31 30 27 29 30 30 30 30 30 29 29 30 31 31 31 33
46 46 47 47 47 49 49 49 49 47 46 46 44 44 44 43 41 37 33 32 31 30 32 33 30 29 32 30 26 25 27 29 29 29 29 29 28 29 30 31 33 35
47 47 47 48 47 48 48 48 49 48 46 46 45 44 43 42 40 37 34 31 30 30 31 31 30 32 34 31 27 24 24 26 27 28 29 28 27 28 28 30 31 34
47 48 48 49 48 47 47 47 48 48 46 46 45 44 43 41 39 37 35 33 32 31 29 28 28 32 36 36 31 26 23 23 24 25 27 26 26 27 27 28 30 32
48 49 50 50 49 47 46 47 47 47 46 46 45 45 44 40 37 37 35 33 32 30 29 28 29 33 38 39 37 31 25 23 23 24 26 26 25 27 27 27 29 31
50 51 51 51 50 48 47 46 47 47 47 47 47 46 45 40 37 36 35 33 31 30 29 29 32 38 39 38 39 38 30 23 23 24 24 25 25 26 26 26 27 29
51 52 51 51 49 48 48 47 47 47 47 47 47 47 45 42 38 35 34 33 33 32 32 31 33 38 37 35 38 41 36 28 23 22 21 24 25 26 26 25 26 27
52 52 51 50 48 48 48 47 47 47 47 47 48 48 46 43 40 36 34 34 34 34 33 31 33 37 39 37 36 39 40 34 27 22 19 21 24 26 25 24 25 26
51 51 51 50 48 49 49 49 49 48 48 47 46 48 48 45 40 35 34 34 35 35 32 33 38 41 41 39 35 36 39 37 31 24 20 20 22 25 26 23 23 25
51 51 51 50 49 50 50 50 50 50 49 48 46 48 49 45 40 36 34 36 38 38 36 38 43 42 40 38 35 36 38 37 33 28 22 21 21 24 25 23 23 24
51 51 51 52 51 52 51 51 51 51 51 48 46 47 45 42 41 39 38 39 40 40 38 40 43 41 38 38 36 35 36 37 35 30 25 22 21 23 25 23 23 25
51 52 53 53 53 52 52 52 52 52 51 49 45 43 41 38 38 39 39 39 39 40 40 40 42 41 39 37 35 34 34 35 35 32 28 26 23 23 25 23 23 25
52 53 54 55 54 53 52 52 53 52 51 49 45 40 37 34 34 34 36 37 38 39 40 39 39 40 37 34 32 32 32 32 33 32 30 28 26 25 26 25 24 26
53 54 55 55 54 53 52 52 53 53 51 48 44 40 36 33 32 33 33 35 36 36 37 36 36 37 35 31 28 27 28 29 30 31 31 30 27 28 30 29 27 28
53 54 55 56 54 52 52 51 52 52 50 46 42 39 36 32 32 33 32 32 33 34 34 35 35 35 33 30 27 25 25 26 27 29 31 31 29 29 33 34 33 33
54 54 55 56 54 51 51 51 51 50 47 44 41 38 35 31 30 31 31 30 31 32 34 35 36 35 33 30 27 26 25 25 26 28 29 31 32 31 34 38 39 40
53 54 55 56 55 52 50 49 48 48 46 43 40 38 35 32 30 29 29 30 31 32 34 36 36 36 34 30 25 25 26 26 27 29 30 32 35 35 36 39 41 43
52 53 55 56 55 53 50 49 47 46 45 41 39 37 35 33 31 29 29 29 31 33 34 36 37 36 34 30 23 22 24 25 26 28 31 33 36 38 39 40 42 44
51 53 54 56 56 54 51 49 47 45 44 40 36 36 35 34 33 31 30 30 30 32 34 36 36 34 33 29 23 21 22 23 25 26 29 32 34 38 41 42 43 45
51 53 55 56 56 54 51 49 47 45 43 39 37 37 37 36 34 32 32 32 30 32 34 35 34 32 30 27 21 20 21 24 25 27 29 31 32 35 39 42 44 46
51 53 55 55 55 53 51 49 47 45 43 40 39 40 41 40 37 33 31 32 31 31 33 34 34 29 26 25 20 19 21 23 25 27 28 30 32 33 36 40 43 46
50 53 54 54 53 51 49 48 47 45 43 39 38 40 41 42 39 35 31 30 29 30 31 33 34 28 23 23 21 19 20 23 25 27 28 29 30 31 33 36 40 44
50 51 52 51 50 48 47 46 46 44 41 37 36 38 40 39 37 35 33 30 29 28 28 30 32 28 23 22 21 21 22 24 25 27 29 29 30 30 31 34 35 39
49 49 49 48 47 46 45 43 43 41 39 37 36 37 37 36 34 33 33 32 30 30 28 27 29 28 23 21 21 21 22 24 26 28 29 31 31 30 30 33 34 38
Wind_Direction
323 323 322 322 323 324 326 327 326 323 321 317 312 309 308 308 305 295 290 292 291 289 289 291 285 275 273 274 272 272 265 255 255 264 267 271 277 274 272 273 272 272
323 323 323 322 323 324 325 325 325 323 319 314 309 308 306 306 304 296 289 289 291 292 289 287 286 281 274 272 272 271 267 257 251 258 266 268 276 277 273 274 272 273
323 323 322 323 323 323 324 325 326 323 318 314 310 307 306 303 302 297 289 288 291 291 286 284 286 284 277 270 271 269 262 257 251 253 264 267 273 277 274 274 270 273
322 322 321 322 322 322 322 324 325 323 319 317 312 308 304 301 299 295 289 288 289 288 285 286 285 281 275 269 268 263 254 254 252 252 260 265 271 275 274 276 273 275
321 321 321 321 320 320 321 322 324 323 320 317 314 308 303 298 296 294 290 286 285 286 287 289 286 276 270 266 267 261 251 253 253 253 260 264 271 274 274 278 275 274
321 320 320 320 318 319 320 321 322 322 319 316 313 309 303 297 294 292 290 286 283 285 285 285 285 278 269 264 265 263 255 254 251 254 263 266 273 276 274 277 272 271
322 321 321 320 319 319 319 320 320 319 317 315 312 310 307 300 292 289 290 286 282 283 281 278 278 276 271 266 265 264 260 256 249 251 263 266 273 277 273 273 269 267
323 323 322 321 320 320 320 321 320 318 316 315 312 310 309 303 293 287 287 285 281 279 278 278 277 276 276 274 269 265 261 260 252 248 259 263 267 274 270 269 267 266
324 323 323 322 322 321 320 321 320 318 315 313 312 310 306 302 296 288 283 281 280 278 276 278 281 281 281 278 272 267 261 261 257 248 255 259 260 268 268 265 264 262
325 324 324 325 325 324 323 321 320 319 315 312 310 309 306 302 298 290 282 279 278 278 276 277 281 282 280 276 273 270 263 260 259 251 253 255 254 263 266 263 261 257
326 326 327 328 329 328 325 323 322 320 317 312 309 308 307 305 298 290 282 278 278 278 276 277 282 283 282 280 276 270 262 258 258 254 254 251 248 258 263 261 261 257
329 329 330 331 331 330 327 324 323 320 316 313 309 307 308 306 299 290 283 280 282 282 278 279 286 287 284 281 277 270 262 256 256 255 256 254 247 253 260 260 260 259
332 333 333 333 333 332 329 324 321 319 317 315 310 307 309 307 301 294 290 286 285 284 282 283 288 290 286 282 277 270 261 254 254 254 254 254 252 253 258 260 260 258
335 335 335 335 335 333 329 324 322 320 319 318 314 310 311 311 305 299 296 293 288 286 285 285 287 288 286 282 277 271 262 253 253 253 252 252 254 256 258 260 260 258
336 336 336 337 337 335 331 328 326 324 321 319 318 316 313 312 310 306 303 300 296 293 291 289 288 288 287 284 278 272 263 255 252 251 250 252 254 257 259 260 261 261
337 337 336 337 337 336 333 330 328 325 323 321 320 319 316 314 312 310 307 304 302 301 298 293 291 290 290 286 279 272 265 259 254 250 247 250 253 255 258 260 262 263
337 336 336 337 338 337 334 333 330 327 325 323 321 319 316 312 310 309 309 307 304 303 301 297 295 294 291 285 275 265 260 259 257 253 249 249 249 252 256 259 262 263
337 336 336 336 338 338 336 334 332 329 327 326 322 319 314 309 307 307 307 307 304 304 304 302 302 301 297 288 272 256 252 254 255 254 253 250 247 247 251 256 260 262
337 335 335 335 337 339 337 335 334 331 330 328 324 320 313 306 305 303 303 304 304 306 307 306 306 305 303 297 276 252 245 250 253 252 252 251 248 246 248 252 257 261
335 334 334 335 337 338 338 337 336 334 331 329 325 320 313 307 305 301 300 302 304 307 307 306 306 304 303 300 281 254 243 245 250 253 252 252 249 247 248 249 253 258
334 334 334 335 336 338 338 338 337 336 333 331 327 322 316 311 306 301 298 298 300 304 305 304 306 304 302 297 278 255 249 248 252 256 257 258 255 251 250 248 250 255
335 334 335 335 337 338 339 338 338 337 334 332 328 325 321 315 308 302 299 296 297 302 304 304 306 306 302 294 271 251 252 254 255 258 258 261 261 257 253 249 248 252
336 335 335 336 338 339 339 339 339 337 335 333 330 325 322 318 313 306 300 297 298 305 307 306 308 308 303 292 270 249 251 254 255 257 258 261 262 260 256 250 246 249
336 336 337 337 338 340 340 340 339 337 335 333 327 320 317 317 316 313 307 303 306 311 311 308 306 305 301 289 269 253 254 255 254 256 257 260 264 262 257 250 246 247
337 337 338 338 339 341 342 341 338 335 332 328 322 317 316 317 319 318 314 313 316 319 318 313 308 304 298 285 270 258 256 254 252 253 256 261 265 265 258 251 247 248
338 339 339 340 342 344 345 342 338 334 331 327 323 321 321 321 321 321 319 319 324 327 323 318 315 312 305 291 275 262 255 251 250 252 258 264 267 268 261 251 247 247